Location: *
(2.5500°S, 65.9667°W)
Time: 13:28:51
(UTC+00:00)

SRMSAT - Pass Details

Date: 02 July 2022
Orbit: 848 x 865 km, 20.0° (Epoch: 18 August)

Event Time Altitude Azimuth Distance (km) Brightness Sun altitude
Exits shadow 08:25:02 56° 349° (N) 993 ? -29.2°
Maximum altitude 08:25:45 61° 21° (NNE) 953 ? -29.0°
Drops below altitude 10° 08:31:35 10° 101° (E) 2,465 ? -27.7°
Sets 08:34:11 0° 104° (ESE) 3,404 ? -27.1°
